Weather History for Texarkana, AR

Change the Weather History Date:

Wednesday, May 9, 2012

  Actual Average Record
Temperature  
Mean Temperature 71 °F 70 °F  
Max Temperature 82 °F 81 °F 92 °F (1899)
Min Temperature 59 °F 59 °F 40 °F (1923)
Degree Days  
Heating Degree Days 0 1  
Month to date heating degree days 0 9  
Since 1 July heating degree days 1913 2612  
Cooling Degree Days 6 6  
Month to date cooling degree days 112 43  
Year to date cooling degree days 327 140  
Growing Degree Days 22 (Base 50)    
Moisture  
Dew Point 50 °F    
Average Humidity 54    
Maximum Humidity 84    
Minimum Humidity 23    
Precipitation  
Precipitation T in 0.17 in 2.47 in (2009)
Month to date precipitation 0.18 1.60  
Year to date precipitation 15.16 17.13  
Snow  
Snow 0.00 in - - ()
Month to date snowfall 0.0  
Since 1 July snowfall T  
Snow Depth 0.00 in    
Sea Level Pressure  
Sea Level Pressure 29.98 in    
Wind  
Wind Speed 4 mph (NNE)    
Max Wind Speed 15 mph    
Max Gust Speed 20 mph    
Visibility 10 miles    
Events Rain    
T = Trace of Precipitation, MM = Missing Value Source: NWS Daily Summary

Daily Weather History Graph

Daily Weather History Graph

Search for Another Location

Airport:

Trip Planner

Search our weather history database for the weather conditions in past years. The results will help you decide how hot, cold, wet, or windy it might be!

Date:

Astronomy

May. 09, 2012 Rise Set
Actual Time 6:19 AM CDT 8:05 PM CDT
Civil Twilight 5:52 AM CDT 8:32 PM CDT
Nautical Twilight 5:20 AM CDT 9:05 PM CDT
Astronomical Twilight 4:45 AM CDT 9:39 PM CDT
Moon No Moon Rise 9:38 AM CDT (5/9)
Length of Visible Light 14h 39m
Length of Day
13h 45m
Waning Gibbous, 82% of the Moon is Illuminated
May 9
Waning Gibbous
May 12
Last Quarter
May 20
New
May 28
First Quarter
Jun 4
Full

Hourly Weather History & Observations

Time (CDT) Temp. Dew Point Humidity Pressure Visibility Wind Dir Wind Speed Gust Speed Precip Events Conditions
12:53 AM 66.0 °F 60.1 °F 81% 29.99 in 10.0 mi NNE 5.8 mph - N/A   Scattered Clouds
1:53 AM 66.0 °F 59.0 °F 78% 29.99 in 10.0 mi North 4.6 mph - N/A   Overcast
2:53 AM 66.0 °F 57.9 °F 75% 29.97 in 10.0 mi NNE 4.6 mph - N/A   Overcast
3:53 AM 64.9 °F 57.0 °F 75% 29.97 in 10.0 mi NNE 6.9 mph - N/A   Overcast
4:53 AM 64.9 °F 57.0 °F 75% 29.98 in 10.0 mi NNE 4.6 mph - 0.00 in Rain Light Rain
5:53 AM 64.0 °F 57.0 °F 78% 29.99 in 10.0 mi Calm Calm - 0.00 in   Clear
6:53 AM 63.0 °F 57.9 °F 84% 30.01 in 10.0 mi Calm Calm - N/A   Clear
7:53 AM 66.0 °F 57.0 °F 73% 30.02 in 10.0 mi NNE 6.9 mph - N/A   Clear
8:53 AM 71.1 °F 53.1 °F 53% 30.02 in 10.0 mi NNE 9.2 mph - N/A   Clear
9:53 AM 73.0 °F 50.0 °F 44% 30.03 in 10.0 mi ENE 6.9 mph - N/A   Clear
10:53 AM 75.0 °F 48.0 °F 38% 30.04 in 10.0 mi NE 8.1 mph - N/A   Clear
11:53 AM 77.0 °F 48.0 °F 36% 30.02 in 10.0 mi NE 8.1 mph - N/A   Clear
12:53 PM 78.1 °F 45.0 °F 31% 30.01 in 10.0 mi Variable 3.5 mph - N/A   Partly Cloudy
1:53 PM 81.0 °F 45.0 °F 28% 29.99 in 10.0 mi NNW 9.2 mph - N/A   Clear
2:53 PM 79.0 °F 43.0 °F 28% 29.97 in 10.0 mi Calm Calm - N/A   Clear
3:53 PM 80.6 °F 39.2 °F 23% 29.97 in 9.0 mi NNW 10.4 mph - N/A   Clear
4:53 PM 82.0 °F 41.0 °F 23% 29.94 in 10.0 mi Variable 6.9 mph - N/A   Clear
5:53 PM 81.0 °F 41.0 °F 24% 29.93 in 10.0 mi North 6.9 mph - N/A   Clear
6:53 PM 80.1 °F 42.1 °F 26% 29.93 in 10.0 mi North 5.8 mph - N/A   Clear
7:53 PM 75.0 °F 46.0 °F 36% 29.93 in 10.0 mi North 3.5 mph - N/A   Clear
8:53 PM 66.9 °F 48.9 °F 52% 29.95 in 10.0 mi Calm Calm - N/A   Clear
9:53 PM 64.0 °F 52.0 °F 65% 29.96 in 10.0 mi Calm Calm - N/A   Clear
10:53 PM 66.9 °F 48.9 °F 52% 29.96 in 10.0 mi Calm Calm - N/A   Clear
11:53 PM 63.0 °F 50.0 °F 63% 29.96 in 10.0 mi Calm Calm - N/A   Clear